TimeAKDT,TemperatureF,Dew PointF,Humidity,Sea Level PressureIn,VisibilityMPH,Wind Direction,Wind SpeedMPH,Gust SpeedMPH,PrecipitationIn,Events,Conditions,WindDirDegrees,DateUTC
12:53 AM,1.0,-5.1,75,30.38,10.0,WSW,12.7,-,N/A,,Clear,240,2013-04-20 08:53:00
1:53 AM,-0.0,-6.0,76,30.37,10.0,SW,11.5,-,N/A,,Clear,220,2013-04-20 09:53:00
2:53 AM,1.9,-5.1,72,30.37,10.0,SW,12.7,-,N/A,,Clear,220,2013-04-20 10:53:00
3:53 AM,1.0,-5.1,75,30.36,10.0,SW,13.8,-,N/A,,Clear,230,2013-04-20 11:53:00
4:53 AM,1.9,-4.0,76,30.35,10.0,SW,11.5,-,N/A,,Clear,230,2013-04-20 12:53:00
5:53 AM,3.0,-2.9,76,30.34,10.0,SW,13.8,-,N/A,,Mostly Cloudy,230,2013-04-20 13:53:00
6:53 AM,3.9,-2.0,76,30.33,10.0,SW,12.7,-,N/A,,Mostly Cloudy,230,2013-04-20 14:53:00
7:53 AM,5.0,-0.9,76,30.32,10.0,SW,16.1,-,N/A,,Mostly Cloudy,230,2013-04-20 15:53:00
8:53 AM,7.0,1.0,77,30.32,10.0,SW,13.8,-,N/A,,Mostly Cloudy,230,2013-04-20 16:53:00
9:53 AM,9.0,1.9,73,30.32,10.0,SW,16.1,-,N/A,,Mostly Cloudy,230,2013-04-20 17:53:00
10:53 AM,12.0,5.0,73,30.31,10.0,WSW,16.1,-,N/A,,Mostly Cloudy,240,2013-04-20 18:53:00
11:53 AM,12.0,6.1,77,30.31,10.0,SW,16.1,-,N/A,,Mostly Cloudy,230,2013-04-20 19:53:00
12:53 PM,14.0,8.1,77,30.32,10.0,WSW,17.3,-,N/A,,Mostly Cloudy,240,2013-04-20 20:53:00
1:53 PM,16.0,9.0,74,30.32,10.0,WSW,18.4,-,N/A,,Mostly Cloudy,250,2013-04-20 21:53:00
2:53 PM,15.8,8.6,73,30.33,10.0,West,18.4,-,N/A,,Mostly Cloudy,270,2013-04-20 22:53:00
3:53 PM,15.8,8.6,73,30.34,10.0,West,18.4,-,N/A,,Mostly Cloudy,260,2013-04-20 23:53:00
4:53 PM,16.0,10.0,77,30.33,10.0,West,20.7,-,0.00,,Scattered Clouds,260,2013-04-21 00:53:00
5:53 PM,15.1,10.0,80,30.33,10.0,West,19.6,-,N/A,,Partly Cloudy,260,2013-04-21 01:53:00
6:53 PM,14.0,9.0,80,30.32,10.0,WSW,19.6,-,N/A,,Partly Cloudy,250,2013-04-21 02:53:00
7:53 PM,12.0,8.1,84,30.32,10.0,WSW,18.4,-,N/A,,Partly Cloudy,250,2013-04-21 03:53:00
8:53 PM,10.0,6.1,84,30.32,10.0,WSW,17.3,-,N/A,,Partly Cloudy,250,2013-04-21 04:53:00
9:53 PM,8.1,3.9,83,30.32,10.0,WSW,17.3,-,N/A,,Partly Cloudy,240,2013-04-21 05:53:00
10:53 PM,6.1,1.9,83,30.32,10.0,SW,18.4,-,N/A,,Partly Cloudy,230,2013-04-21 06:53:00
11:53 PM,3.9,-0.0,84,30.33,10.0,WSW,17.3,-,N/A,,Partly Cloudy,240,2013-04-21 07:53:00